| time (UTC) | temp F | wind direction | speed MPH | gust MPH | rain 1hr in | rain 24hr in | rain mn in | humidity % | barometer mb |
| 20260507043516 | 39 | 0.0 | 0.0 | 0.00 | 0.00 | 0.00 | 63 | 1014.0 | |
| 20260507042537 | 39 | 0.0 | 0.0 | 0.00 | 0.00 | 0.00 | 61 | 1013.9 | |
| 20260507041537 | 40 | 0.0 | 0.0 | 0.00 | 0.00 | 0.00 | 61 | 1014.0 | |
| 20260507040517 | 40 | 0.0 | 0.0 | 0.00 | 0.00 | 0.00 | 61 | 1014.1 | |
| 20260507035517 | 40 | 0.0 | 0.0 | 0.00 | 0.00 | 0.00 | 59 | 1014.1 | |
| 20260507034517 | 41 | 0.0 | 0.0 | 0.00 | 0.00 | 0.00 | 58 | 1014.2 | |
| 20260507033537 | 42 | 0.0 | 0.0 | 0.00 | 0.00 | 0.00 | 56 | 1014.2 | |
| 20260507032516 | 42 | 0.0 | 0.0 | 0.00 | 0.00 | 0.00 | 54 | 1014.4 | |
| 20260507031516 | 43 | 0.0 | 0.0 | 0.00 | 0.00 | 0.00 | 54 | 1014.4 | |
| 20260507030516 | 43 | 0.0 | 0.0 | 0.00 | 0.00 | 0.00 | 52 | 1014.6 | |
| 20260507025536 | 43 | 0.0 | 0.0 | 0.00 | 0.00 | 0.00 | 52 | 1014.5 | |
| 20260507024536 | 44 | 0 | 1.0 | 2.0 | 0.00 | 0.00 | 0.00 | 52 | 1014.5 |
| 20260507023536 | 44 | 0.0 | 2.0 | 0.00 | 0.00 | 0.00 | 50 | 1014.6 | |
| 20260507022516 | 45 | 0.0 | 2.0 | 0.00 | 0.00 | 0.00 | 49 | 1014.5 | |
| 20260507021516 | 45 | 0.0 | 2.0 | 0.00 | 0.00 | 0.00 | 48 | 1014.4 | |
| 20260507020517 | 46 | 0.0 | 0.0 | 0.00 | 0.00 | 0.00 | 48 | 1014.4 | |
| 20260507015517 | 47 | 0.0 | 0.0 | 0.00 | 0.00 | 0.00 | 47 | 1014.5 | |
| 20260507014517 | 47 | 0.0 | 0.0 | 0.00 | 0.00 | 0.00 | 45 | 1014.5 | |
| 20260507013517 | 48 | 0 | 1.0 | 2.0 | 0.00 | 0.00 | 0.00 | 45 | 1014.4 |
| 20260507012516 | 49 | 158 | 1.0 | 4.0 | 0.00 | 0.00 | 0.00 | 43 | 1014.5 |
| 20260507011517 | 49 | 0.0 | 2.0 | 0.00 | 0.00 | 0.00 | 43 | 1014.4 | |
| 20260507010517 | 49 | 158 | 2.0 | 4.0 | 0.00 | 0.00 | 0.00 | 42 | 1014.4 |
| 20260507005537 | 49 | 158 | 2.0 | 9.0 | 0.00 | 0.00 | 0.00 | 41 | 1014.4 |
| 20260507004536 | 50 | 158 | 2.0 | 5.0 | 0.00 | 0.00 | 0.00 | 41 | 1014.4 |
| 20260507003516 | 50 | 135 | 3.0 | 8.0 | 0.00 | 0.00 | 0.00 | 41 | 1014.4 |
| 20260507002516 | 50 | 135 | 3.0 | 8.0 | 0.00 | 0.00 | 0.00 | 41 | 1014.4 |
| 20260507001516 | 50 | 158 | 4.0 | 10.0 | 0.00 | 0.00 | 0.00 | 41 | 1014.5 |
| 20260507000537 | 50 | 0 | 5.0 | 10.0 | 0.00 | 0.00 | 0.00 | 41 | 1014.4 |
| 20260506235536 | 50 | 158 | 4.0 | 8.0 | 0.00 | 0.00 | 0.00 | 41 | 1014.6 |
| 20260506234516 | 51 | 158 | 4.0 | 8.0 | 0.00 | 0.00 | 0.00 | 41 | 1014.7 |
| 20260506233516 | 51 | 135 | 4.0 | 10.0 | 0.00 | 0.00 | 0.00 | 40 | 1014.7 |
| 20260506232536 | 51 | 135 | 4.0 | 11.0 | 0.00 | 0.00 | 0.00 | 40 | 1014.7 |
| 20260506231516 | 51 | 158 | 3.0 | 8.0 | 0.00 | 0.00 | 0.00 | 41 | 1014.7 |
| 20260506230517 | 51 | 158 | 5.0 | 11.0 | 0.00 | 0.00 | 0.00 | 40 | 1014.8 |
| 20260506225516 | 51 | 135 | 5.0 | 12.0 | 0.00 | 0.00 | 0.00 | 39 | 1014.8 |
| 20260506224517 | 51 | 158 | 4.0 | 10.0 | 0.00 | 0.00 | 0.00 | 39 | 1014.9 |
| 20260506223516 | 52 | 158 | 7.0 | 16.0 | 0.00 | 0.00 | 0.00 | 39 | 1015.2 |
| 20260506222516 | 52 | 135 | 7.0 | 15.0 | 0.00 | 0.00 | 0.00 | 40 | 1015.2 |
| 20260506221516 | 52 | 135 | 5.0 | 11.0 | 0.00 | 0.00 | 0.00 | 39 | 1015.4 |
| 20260506220517 | 53 | 135 | 7.0 | 16.0 | 0.00 | 0.00 | 0.00 | 40 | 1015.3 |
| 20260506215516 | 52 | 135 | 6.0 | 13.0 | 0.00 | 0.00 | 0.00 | 39 | 1015.3 |
| 20260506214516 | 52 | 135 | 7.0 | 13.0 | 0.00 | 0.00 | 0.00 | 39 | 1015.4 |
| 20260506213516 | 52 | 135 | 8.0 | 13.0 | 0.00 | 0.00 | 0.00 | 39 | 1015.6 |
| 20260506212516 | 52 | 135 | 6.0 | 12.0 | 0.00 | 0.00 | 0.00 | 39 | 1015.6 |
| 20260506211516 | 52 | 135 | 6.0 | 11.0 | 0.00 | 0.00 | 0.00 | 39 | 1015.8 |
| 20260506210516 | 53 | 135 | 8.0 | 14.0 | 0.00 | 0.00 | 0.00 | 40 | 1015.9 |
| 20260506205516 | 52 | 135 | 6.0 | 12.0 | 0.00 | 0.00 | 0.00 | 40 | 1016.1 |
| 20260506204536 | 52 | 135 | 6.0 | 13.0 | 0.00 | 0.00 | 0.00 | 41 | 1016.0 |
| 20260506203516 | 51 | 135 | 5.0 | 11.0 | 0.00 | 0.00 | 0.00 | 41 | 1016.2 |
| 20260506202516 | 51 | 135 | 4.0 | 10.0 | 0.00 | 0.00 | 0.00 | 42 | 1016.0 |
| 20260506201516 | 51 | 135 | 6.0 | 11.0 | 0.00 | 0.00 | 0.00 | 43 | 1016.3 |
| 20260506200516 | 51 | 135 | 5.0 | 10.0 | 0.00 | 0.00 | 0.00 | 41 | 1016.2 |
| 20260506195516 | 52 | 135 | 7.0 | 18.0 | 0.00 | 0.00 | 0.00 | 40 | 1016.5 |
| 20260506194536 | 51 | 135 | 6.0 | 11.0 | 0.00 | 0.00 | 0.00 | 43 | 1016.6 |
| 20260506193516 | 51 | 135 | 6.0 | 13.0 | 0.00 | 0.00 | 0.00 | 42 | 1016.5 |
| 20260506192516 | 51 | 135 | 6.0 | 11.0 | 0.00 | 0.00 | 0.00 | 43 | 1016.5 |
| 20260506191516 | 51 | 135 | 6.0 | 18.0 | 0.00 | 0.00 | 0.00 | 41 | 1016.6 |
| 20260506190515 | 49 | 135 | 4.0 | 9.0 | 0.00 | 0.00 | 0.00 | 44 | 1016.6 |
| 20260506185535 | 49 | 135 | 6.0 | 16.0 | 0.00 | 0.00 | 0.00 | 44 | 1016.5 |
| 20260506184536 | 49 | 135 | 7.0 | 11.0 | 0.00 | 0.00 | 0.00 | 44 | 1016.6 |
| 20260506183515 | 49 | 135 | 7.0 | 10.0 | 0.00 | 0.00 | 0.00 | 43 | 1016.6 |
| 20260506182516 | 49 | 135 | 6.0 | 12.0 | 0.00 | 0.00 | 0.00 | 45 | 1016.7 |
| 20260506181516 | 49 | 135 | 5.0 | 11.0 | 0.00 | 0.00 | 0.00 | 45 | 1016.8 |
| 20260506180556 | 48 | 135 | 5.0 | 12.0 | 0.00 | 0.00 | 0.00 | 46 | 1016.7 |
| 20260506175516 | 47 | 135 | 4.0 | 9.0 | 0.00 | 0.00 | 0.00 | 45 | 1016.9 |
| 20260506174516 | 47 | 135 | 6.0 | 13.0 | 0.00 | 0.00 | 0.00 | 48 | 1016.9 |
| 20260506173515 | 46 | 135 | 6.0 | 13.0 | 0.00 | 0.00 | 0.00 | 48 | 1016.9 |
| 20260506172516 | 45 | 135 | 6.0 | 13.0 | 0.00 | 0.00 | 0.00 | 48 | 1016.9 |
| 20260506171535 | 45 | 135 | 5.0 | 9.0 | 0.00 | 0.00 | 0.00 | 49 | 1017.0 |
| 20260506170516 | 44 | 135 | 5.0 | 10.0 | 0.00 | 0.00 | 0.00 | 51 | 1017.0 |
| 20260506165515 | 44 | 135 | 4.0 | 9.0 | 0.00 | 0.00 | 0.00 | 51 | 1017.1 |
| 20260506164516 | 43 | 135 | 5.0 | 10.0 | 0.00 | 0.00 | 0.00 | 51 | 1017.1 |
| 20260506163516 | 44 | 158 | 6.0 | 12.0 | 0.00 | 0.00 | 0.00 | 50 | 1017.2 |
| 20260506162535 | 44 | 158 | 6.0 | 10.0 | 0.00 | 0.00 | 0.00 | 50 | 1017.3 |
| 20260506161516 | 44 | 135 | 5.0 | 10.0 | 0.00 | 0.00 | 0.00 | 51 | 1017.2 |
| 20260506160515 | 44 | 135 | 5.0 | 10.0 | 0.00 | 0.00 | 0.00 | 51 | 1017.2 |
| 20260506155537 | 43 | 135 | 5.0 | 9.0 | 0.00 | 0.00 | 0.00 | 51 | 1017.2 |
| 20260506154518 | 43 | 158 | 5.0 | 9.0 | 0.00 | 0.00 | 0.00 | 52 | 1017.1 |
| 20260506153517 | 43 | 158 | 5.0 | 10.0 | 0.00 | 0.00 | 0.00 | 52 | 1017.0 |
| 20260506152517 | 43 | 135 | 5.0 | 13.0 | 0.00 | 0.00 | 0.00 | 52 | 1017.0 |
| 20260506151517 | 43 | 135 | 4.0 | 8.0 | 0.00 | 0.00 | 0.00 | 55 | 1017.1 |
| 20260506150517 | 43 | 135 | 4.0 | 8.0 | 0.00 | 0.00 | 0.00 | 56 | 1017.0 |
| 20260506145515 | 42 | 135 | 3.0 | 7.0 | 0.00 | 0.00 | 0.00 | 57 | 1017.0 |
| 20260506144536 | 42 | 135 | 4.0 | 10.0 | 0.00 | 0.00 | 0.00 | 57 | 1016.9 |
| 20260506143516 | 42 | 135 | 3.0 | 7.0 | 0.00 | 0.00 | 0.00 | 58 | 1016.9 |
| 20260506142518 | 42 | 135 | 4.0 | 7.0 | 0.00 | 0.00 | 0.00 | 58 | 1016.9 |
| 20260506141517 | 42 | 135 | 4.0 | 8.0 | 0.00 | 0.00 | 0.00 | 58 | 1017.0 |
| 20260506140537 | 41 | 135 | 4.0 | 8.0 | 0.00 | 0.00 | 0.00 | 59 | 1017.0 |
| 20260506135516 | 41 | 135 | 4.0 | 9.0 | 0.00 | 0.00 | 0.00 | 59 | 1017.0 |
| 20260506134538 | 41 | 158 | 4.0 | 6.0 | 0.00 | 0.00 | 0.00 | 60 | 1017.0 |
| 20260506133518 | 40 | 135 | 6.0 | 11.0 | 0.00 | 0.00 | 0.00 | 60 | 1016.9 |
| 20260506132518 | 40 | 135 | 5.0 | 10.0 | 0.00 | 0.00 | 0.00 | 61 | 1016.8 |
| 20260506131518 | 40 | 135 | 4.0 | 8.0 | 0.00 | 0.00 | 0.00 | 60 | 1016.8 |
| 20260506130518 | 40 | 135 | 4.0 | 8.0 | 0.00 | 0.00 | 0.00 | 61 | 1016.5 |
| 20260506125537 | 40 | 135 | 3.0 | 5.0 | 0.00 | 0.00 | 0.00 | 62 | 1016.5 |
| 20260506124517 | 39 | 135 | 3.0 | 7.0 | 0.00 | 0.00 | 0.00 | 62 | 1016.4 |
| 20260506123517 | 39 | 135 | 2.0 | 5.0 | 0.00 | 0.00 | 0.00 | 63 | 1016.4 |
| 20260506122518 | 39 | 135 | 2.0 | 7.0 | 0.00 | 0.00 | 0.00 | 64 | 1016.1 |
| 20260506121537 | 39 | 135 | 2.0 | 3.0 | 0.00 | 0.00 | 0.00 | 63 | 1016.1 |
| 20260506120517 | 38 | 135 | 3.0 | 4.0 | 0.00 | 0.00 | 0.00 | 63 | 1016.0 |
| 20260506115518 | 38 | 135 | 3.0 | 4.0 | 0.00 | 0.00 | 0.00 | 63 | 1015.8 |
| 20260506114518 | 38 | 135 | 2.0 | 5.0 | 0.00 | 0.00 | 0.00 | 63 | 1015.6 |
| 20260506113517 | 38 | 135 | 2.0 | 5.0 | 0.00 | 0.00 | 0.00 | 64 | 1015.3 |
| 20260506112517 | 38 | 135 | 2.0 | 4.0 | 0.00 | 0.00 | 0.00 | 65 | 1015.5 |
| 20260506111517 | 38 | 135 | 1.0 | 4.0 | 0.00 | 0.00 | 0.00 | 64 | 1015.2 |
| 20260506110517 | 38 | 135 | 1.0 | 2.0 | 0.00 | 0.00 | 0.00 | 64 | 1015.1 |
| 20260506105517 | 38 | 0.0 | 0.0 | 0.00 | 0.00 | 0.00 | 63 | 1014.9 | |
| 20260506104517 | 38 | 0.0 | 0.0 | 0.00 | 0.00 | 0.00 | 63 | 1014.7 | |
| 20260506103517 | 38 | 0.0 | 0.0 | 0.00 | 0.00 | 0.00 | 62 | 1014.9 | |
| 20260506102517 | 38 | 0.0 | 0.0 | 0.00 | 0.00 | 0.00 | 62 | 1015.1 | |
| 20260506101517 | 38 | 0.0 | 0.0 | 0.00 | 0.00 | 0.00 | 62 | 1015.1 | |
| 20260506100517 | 38 | 0.0 | 1.0 | 0.00 | 0.00 | 0.00 | 61 | 1015.3 | |
| 20260506095517 | 38 | 135 | 1.0 | 3.0 | 0.00 | 0.00 | 0.00 | 61 | 1015.3 |
| 20260506094518 | 38 | 135 | 1.0 | 3.0 | 0.00 | 0.00 | 0.00 | 61 | 1015.2 |
| 20260506093517 | 38 | 135 | 2.0 | 3.0 | 0.00 | 0.00 | 0.00 | 61 | 1014.9 |
| 20260506092518 | 38 | 135 | 2.0 | 4.0 | 0.00 | 0.00 | 0.00 | 60 | 1014.9 |
| 20260506091517 | 38 | 135 | 1.0 | 3.0 | 0.00 | 0.00 | 0.00 | 60 | 1014.9 |
| 20260506090537 | 38 | 135 | 2.0 | 4.0 | 0.00 | 0.00 | 0.00 | 60 | 1014.8 |
| 20260506085557 | 38 | 135 | 2.0 | 4.0 | 0.00 | 0.00 | 0.00 | 61 | 1014.9 |
| 20260506084518 | 38 | 135 | 2.0 | 4.0 | 0.00 | 0.00 | 0.00 | 61 | 1014.7 |
| 20260506083537 | 38 | 135 | 2.0 | 5.0 | 0.00 | 0.00 | 0.00 | 61 | 1014.5 |
| 20260506082517 | 37 | 135 | 1.0 | 4.0 | 0.00 | 0.00 | 0.00 | 62 | 1014.7 |
| 20260506081517 | 37 | 135 | 1.0 | 4.0 | 0.00 | 0.00 | 0.00 | 62 | 1014.7 |
| 20260506080537 | 37 | 0.0 | 0.0 | 0.00 | 0.00 | 0.00 | 63 | 1014.3 | |
| 20260506073517 | 37 | 0.0 | 0.0 | 0.00 | 0.00 | 0.00 | 62 | 1014.7 | |
| 20260506072517 | 37 | 0.0 | 0.0 | 0.00 | 0.00 | 0.00 | 61 | 1014.5 | |
| 20260506071517 | 37 | 0.0 | 0.0 | 0.00 | 0.00 | 0.00 | 61 | 1014.4 | |
| 20260506070517 | 37 | 0.0 | 0.0 | 0.00 | 0.00 | 0.00 | 61 | 1014.3 | |
| 20260506062517 | 38 | 0.0 | 0.0 | 0.00 | 0.00 | 0.00 | 58 | 1014.0 | |
| 20260506061517 | 38 | 0.0 | 0.0 | 0.00 | 0.00 | 0.00 | 58 | 1014.2 | |
| 20260506060517 | 38 | 0.0 | 0.0 | 0.00 | 0.00 | 0.00 | 58 | 1014.2 | |
| 20260506050537 | 40 | 158 | 2.0 | 3.0 | 0.00 | 0.00 | 0.00 | 54 | 1014.1 |
| 20260506044517 | 41 | 0 | 1.0 | 2.0 | 0.00 | 0.00 | 0.00 | 53 | 1013.9 |